Location: Estes Par
(40.3770°N, 105.5210°W)
Time: 05:02:20
(UTC-07:00)

Tiangong 2 - Pass Details

Date: 09 October 2017
Orbit: 386 x 390 km, 42.8° (Epoch: 17 December)

Event Time Altitude Azimuth Distance (km) Brightness Sun altitude
Exits shadow 06:00:23 21° 231° (SW) 941 2.6 -13.5°
Maximum altitude 06:02:18 57° 157° (SSE) 462 1.5 -13.1°
Drops below altitude 10° 06:05:28 10° 78° (ENE) 1,420 5.4 -12.5°
Sets 06:07:34 0° 74° (ENE) 2,279 6.7 -12.1°
